TimeEST,TemperatureF,Dew PointF,Humidity,Sea Level PressureIn,VisibilityMPH,Wind Direction,Wind SpeedMPH,Gust SpeedMPH,PrecipitationIn,Events,Conditions,WindDirDegrees,DateUTC
12:53 AM,33.1,28.0,82,30.26,10.0,WNW,13.8,-,N/A,,Overcast,290,2013-01-07 05:53:00
1:53 AM,32.0,28.0,85,30.29,8.0,West,10.4,-,N/A,,Overcast,280,2013-01-07 06:53:00
2:53 AM,30.9,27.0,85,30.32,7.0,West,9.2,-,N/A,,Overcast,270,2013-01-07 07:53:00
3:53 AM,30.9,25.0,79,30.34,7.0,WNW,9.2,-,N/A,,Overcast,300,2013-01-07 08:53:00
4:53 AM,30.0,24.1,79,30.35,8.0,WNW,6.9,-,N/A,,Overcast,290,2013-01-07 09:53:00
5:05 AM,30.2,24.8,80,30.33,7.0,WNW,5.8,-,N/A,,Overcast,290,2013-01-07 10:05:00
5:53 AM,30.0,24.1,79,30.35,7.0,West,4.6,-,N/A,,Overcast,270,2013-01-07 10:53:00
6:22 AM,30.2,24.8,80,30.36,7.0,West,3.5,-,N/A,,Overcast,280,2013-01-07 11:22:00
6:53 AM,30.0,24.1,79,30.40,7.0,West,6.9,-,N/A,,Overcast,270,2013-01-07 11:53:00
7:53 AM,30.0,24.1,79,30.42,7.0,WSW,6.9,-,N/A,,Overcast,250,2013-01-07 12:53:00
8:04 AM,30.2,24.8,80,30.41,5.0,WSW,4.6,-,N/A,,Haze,250,2013-01-07 13:04:00
8:14 AM,30.2,24.8,80,30.41,5.0,WSW,5.8,-,N/A,,Haze,240,2013-01-07 13:14:00
8:21 AM,30.2,24.8,80,30.41,5.0,West,5.8,-,N/A,,Haze,260,2013-01-07 13:21:00
8:41 AM,30.2,24.8,80,30.42,5.0,SSW,6.9,-,N/A,,Haze,210,2013-01-07 13:41:00
8:53 AM,30.0,24.1,79,30.45,5.0,SW,8.1,-,N/A,,Haze,220,2013-01-07 13:53:00
9:53 AM,30.0,24.1,79,30.48,5.0,SW,6.9,-,N/A,,Haze,220,2013-01-07 14:53:00
10:53 AM,30.9,25.0,79,30.50,5.0,SW,5.8,-,N/A,,Haze,220,2013-01-07 15:53:00
11:16 AM,30.2,24.8,80,30.47,5.0,SW,4.6,-,N/A,,Haze,230,2013-01-07 16:16:00
11:53 AM,32.0,24.1,73,30.47,6.0,Calm,Calm,-,N/A,,Haze,0,2013-01-07 16:53:00
12:53 PM,32.0,23.0,69,30.43,8.0,Calm,Calm,-,N/A,,Overcast,0,2013-01-07 17:53:00
1:53 PM,32.0,23.0,69,30.42,9.0,South,4.6,-,N/A,,Overcast,180,2013-01-07 18:53:00
2:53 PM,33.1,21.9,64,30.41,10.0,Calm,Calm,-,N/A,,Overcast,0,2013-01-07 19:53:00
3:53 PM,34.0,23.0,64,30.41,10.0,Calm,Calm,-,N/A,,Scattered Clouds,0,2013-01-07 20:53:00
4:53 PM,32.0,21.9,66,30.40,10.0,SSW,3.5,-,N/A,,Clear,200,2013-01-07 21:53:00
6:53 PM,28.0,21.0,75,30.38,10.0,Calm,Calm,-,N/A,,Clear,0,2013-01-07 23:53:00
7:53 PM,27.0,21.0,78,30.37,9.0,Calm,Calm,-,N/A,,Clear,0,2013-01-08 00:53:00
8:53 PM,25.0,21.9,88,30.37,7.0,Calm,Calm,-,N/A,,Clear,0,2013-01-08 01:53:00
9:53 PM,24.1,19.9,84,30.35,7.0,Calm,Calm,-,N/A,,Clear,0,2013-01-08 02:53:00
10:53 PM,24.1,19.0,81,30.33,7.0,Calm,Calm,-,N/A,,Clear,0,2013-01-08 03:53:00
11:53 PM,23.0,19.9,88,30.30,6.0,Calm,Calm,-,N/A,,Clear,0,2013-01-08 04:53:00